Regional Weather Roundup
Issued by NWS

Home | Current Version | Previous Version | Graphics & Text | Print | Product List | Glossary On
Versions: 1 2 3 4 5 6 7 8 9 10 11 12 13 14 15 16 17 18 19 20 21 22 23 24 25 26 27 28 29 30 31 32 33 34 35 36 37 38 39 40 41 42 43 44 45 46 47 48 49 50
000
ASUS44 KMEG 240110
RWRTN
TENNESSEE HOURLY STATE WEATHER ROUNDUP
NATIONAL WEATHER SERVICE MEMPHIS TN
800 PM CDT TUE AUG 23 2016

TNZ002-004-019-021-049-052-054-088>092-240200-
WEST TENNESSEE

CITY           SKY/WX    TMP DP  RH WIND       PRES   REMARKS
MEMPHIS INTL   PTCLDY    85  73  67 CALM      30.13S HX  91
NWS MEMPHIS      N/A     81 N/A N/A MISG        N/A
JACKSON        CLEAR     79  76  90 CALM      30.16S
DYERSBURG      PTCLDY    82  73  74 MISG      30.14S
UNION CITY     CLEAR     79  75  89 SE3       30.13F
PARIS          CLEAR     73  72  94 SE3       30.17F
$$

TNZ008-025-027-028-033-062-065-066-240200-
NORTH MIDDLE TENNESSEE

CITY           SKY/WX    TMP DP  RH WIND       PRES   REMARKS
NASHVILLE      CLOUDY    79  69  71 CALM      30.20S
CLARKSVILLE    PTCLDY    76  70  82 SE5       30.17F
SMYRNA         CLEAR     81  72  74 MISG      30.20S
COOKEVILLE     CLEAR     75  72  88 E5        30.21F
CROSSVILLE     CLOUDY    72  66  81 CALM      30.27F
$$

TNZ061-075-076-078-094-096-097-240200-
SOUTH MIDDLE TENNESSEE

CITY           SKY/WX    TMP DP  RH WIND       PRES   REMARKS
FAYETTEVILLE   PTCLDY    79  72  78 CALM      30.20S
TULLAHOMA      CLEAR     77  70  78 CALM      30.23R
WINCHESTER     CLEAR     77  72  83 CALM      30.21S
MCMINNVILLE    CLEAR     77  72  83 CALM      30.22S
COLUMBIA       CLEAR     79  79 100 CALM      30.18S
SHELBYVILLE    CLEAR     79  75  89 CALM      30.21S
$$

TNZ017-018-042-046-047-240200-
NORTHEAST TENNESSEE

CITY           SKY/WX    TMP DP  RH WIND       PRES   REMARKS
TRI CITIES     PTCLDY    74  63  68 CALM      30.27R
ELIZABETHTON     N/A     68  64  88 CALM      30.28R
$$

TNZ012-013-036-069-073-074-240200-
CENTRAL EAST TENNESSEE

CITY           SKY/WX    TMP DP  RH WIND       PRES   REMARKS
KNOXVILLE      MOCLDY    81  64  56 SW3       30.23R
OAK RIDGE      PTCLDY    76  65  68 CALM      30.24S
GATLINBURG     PTCLDY    75  64  69 CALM      30.24R
MORRISTOWN     CLOUDY    77  66  69 CALM      30.25S
$$

TNZ083-085-099-240200-
SOUTHEAST TENNESSEE

CITY           SKY/WX    TMP DP  RH WIND       PRES   REMARKS
CHATTANOOGA    MOCLDY    85  64  49 N5        30.20F
$$

SKY/WX REPORTED AS FAIR MEANS FEW OR NO CLOUDS BELOW
12 THOUSAND FEET.




USA.gov is the U.S. government's official web portal to all federal, state and local government web resources and services.